Regional Weather Roundup
Issued by NWS Charleston, SC

Current Version | Previous Version | Text Only | Print | Product List | Glossary Off
Versions: 1 2 3 4 5 6 7 8 9 10 11 12 13 14 15 16 17 18 19 20 21 22 23 24 25 26 27 28 29 30 31 32 33 34 35 36 37 38 39 40 41 42 43 44 45 46 47 48 49 50

000
ASUS42 KCHS 270312
RWRCHS

REGIONAL WEATHER ROUNDUP
NATIONAL WEATHER SERVICE CHARLESTON SC
1100 PM EDT TUE MAY 26 2015

NOTE: "FAIR" INDICATES FEW OR NO CLOUDS BELOW 12,000 FEET WITH NO
SIGNIFICANT WEATHER AND/OR OBSTRUCTIONS TO VISIBILITY.

NOT ALL STATIONS ARE QUALITY CONTROLLED BY THE NATIONAL
WEATHER SERVICE. USE DATA WITH CAUTION...ESPECIALLY
DEWPOINT OBSERVATIONS.

SCZ027-030-031-034>040-042>050-270400-
...SOUTHEAST SOUTH CAROLINA...

CITY           SKY/WX    TMP DP  RH WIND       PRES   REMARKS
N CHARLESTON   CLOUDY    76  70  82 S7        30.26S
WATERFRONT PAR   N/A     78  73  84 S9        30.23R
MOUNT PLEASANT FAIR      75  73  94 S7        30.27S
JOHNS ISLAND   CLOUDY    77  73  88 S9        30.27S
PINOPOLIS        N/A     79  72  78 CALM      30.20R
MONCKS CORNER  MOCLDY    75  72  88 S3        30.26S
SUMMERVILLE    FAIR      75  72  88 CALM      30.27S
BEAUFORT MCAS  MOCLDY    76  70  82 S5        30.26R
BEAUFORT ARPT  FAIR      75  72  88 S5        30.26R
HILTON HEAD IS MOCLDY    77  72  83 CALM      30.27R
WALTERBORO     CLOUDY    72  70  94 S3        30.27R
ALLENDALE      CLOUDY    77  70  78 CALM      30.27R

...SOUTHERN MIDLANDS AND PEE DEE...

CITY           SKY/WX    TMP DP  RH WIND       PRES   REMARKS
GEORGETOWN     NOT AVBL
KINGSTREE      NOT AVBL
ORANGEBURG     CLOUDY    76  68  76 SW6       30.27R
BARNWELL       CLOUDY    70  70 100 CALM      30.30R
AIKEN          MOCLDY    66  64  94 SE6       30.32R
MANNING        FAIR      75  59  57 S5        30.26S
COLUMBIA       LGT RAIN  72  65  78 W9        30.27R
SUMTER         CLOUDY    77  68  72 S8        30.24R
FLORENCE       MOCLDY    74  69  85 S9        30.26R
MYRTLE BEACH   NOT AVBL
N MYRTLE BEACH CLOUDY    77  69  76 SW13      30.26R

$$

GAZ063-065-086>088-099>101-113>116-118-119-134>141-150-270400-
...SOUTHEAST GEORGIA...

CITY           SKY/WX    TMP DP  RH WIND       PRES   REMARKS
SAVANNAH ARPT  CLOUDY    77  71  82 SW5       30.27R
HUNTER AAF     LGT RAIN  77  74  91 SW5       30.24R
FORT STEWART   NOT AVBL
STATESBORO     LGT RAIN  69  32  25 N5        30.28F
SYLVANIA       CLOUDY    72  71  96 NW7       30.31R
CLAXTON        MOCLDY    70  70 100 CALM      30.27F

...CSRA...CENTRAL AND FAR SOUTHEAST GEORGIA...

CITY           SKY/WX    TMP DP  RH WIND       PRES   REMARKS
THOMSON        CLOUDY    70  70  99 E5        30.30R
AUGUSTA-BUSH   LGT RAIN  69  68  96 S6        30.28R
AUGUSTA-DANIEL RAIN      70  67  90 SE7       30.29R
SWAINSBORO     RAIN     N/A N/A N/A E5        30.27S
VIDALIA        LGT RAIN  70  68  94 CALM      30.25F
EASTMAN        LGT RAIN  70  70 100 S13       30.26S
HAZLEHURST     LGT RAIN  70  70 100 CALM      30.25R
ALMA           CLOUDY    70  69  97 CALM      30.26R
WAYCROSS       CLOUDY    70  70  99 S3        30.26R
JESUP          FAIR      77  70  78 NE3       30.25F
BAXLEY         LGT RAIN  70  70 100 CALM      30.26R
BRUNSWICK      CLOUDY    75  70  83 CALM      30.27R
SAINT SIMONS   NOT AVBL

$$

SCZ027-028-034-036>038-045-046-048>050-GAZ119-141-270400-
...LAKE AND SUPPLEMENTAL COASTAL OBSERVATIONS...

STATION/POSITION TIME  TEMP    WIND        PRES    WAVE   SWELL
                       AIR SEA DIR/SP/G            HT/PER HT/PER/DIR
                 (UTC) (F)     (DEG/KT/KT) (MB)    (FT/S) (FT/S/D)
UPR LAKE MARION  NOT AVBL
WINYAH BAY       NOT AVBL
LAKE MURRAY      0200   71     280/ 14/ 20 1024.0R
ACE BASIN NERRS  NOT AVBL
FORT PULASKI     0200   77 79  140/  7/ 11 1024.7R
SAPELO ISLAND    0200   78     190/  8     1024.0R

$$

ANZ835-935-AMZ111-154-330-350-352-354-370-450-454-472-270400-
...C-MAN AND BUOY OBSERVATIONS...

STATION/POSITION TIME  TEMP    WIND        PRES    WAVE   SWELL
                       AIR SEA DIR/SP/G            HT/PER HT/PER/DIR
                 (UTC) (F)     (DEG/KT/KT) (MB)    (FT/S) (FT/S/D)
BUOY 41004       0250   78 76  160/ 12/ 14 1024.6R   4/ 7   2/ 7
BUOY 41008       0250   78 78  150/ 12/ 14 1024.8R   3/ 6   2/100/ 6
FOLLY BEACH CMAN 0300   77     170/ 13/ 14 1024.9R
CAPERS NEARSHORE 0208   77     160/  8/ 12 1025.0R
FRIPP NEARSHORE  0200   78     180/ 14/ 16 1023.6R


STATION/POSITION TIME  TEMP    WIND        PRES    WAVE   SWELL
                       AIR SEA DIR/SP/G            HT/PER HT/PER/DIR
                 (UTC) (F)     (DEG/KT/KT) (MB)    (FT/S) (FT/S/D)
5E ST. MARYS GA  0221      79                N/A     3/ 5
FRYING PAN BUOY  0250   77 75  170/ 12/ 14 1026.0R   4/ 7   3/110/ 7
BUOY 41025       0250   74 76  180/ 17/ 21 1025.8F   3/ 5   2/130/ 9
CAPE LOOKOUT NC  0300   74     170/ 14/ 16 1025.7R
BUOY 41002       0250   73 74  120/ 12/ 14 1026.5R   4/ 7   3/120/ 7
BUOY 41010       0220   78 81   90/ 12/ 16 1023.7R
ST AUGUSTINE FL  0300   78 81  130/ 15/ 16 1024.5R


$$


USA.gov is the U.S. government's official web portal to all federal, state and local government web resources and services.